Showing default

O3B FM11, 40349

Orbit data source: Space-Track

O3B FM11, 40349 is a payload satellite owned by O3B (JE) that was launched on Thu, 18 Dec 2014 UTC via a SOYUZ-ST-B launch vehicle from the French Guiana (FRGUI). Payload-class satellites include a variety of spacecraft equipped with specific instruments for various scientific and technological missions. These include communications satellites like Starlink; space stations such as the ISS; scientific satellites like the Hubble; Earth observation satellites from companies like Planet Labs, Umbra, and HawkEye 360; GPS; miniature CubeSats for education and research; and military/defense satellites.

Loading next visibility...
Identifier
40349, 2014-083B
Orbit
Active
Last TLE update
1 day ago
Origin
Manufacturer
Thales Alenia
Mission
Operational Commercial Communications
Bus & Motor
PRISMA?, LS-400 AOCS?
Mass
700 kg wet, ~500 kg dry
Launch date (UTC)
2014-12-18 (11 years ago)
Launch vehicle
SOYUZ-ST-B
Launch site
French Guiana (FRGUI)
Object type
Payload
Rocket body
Debris
Shape & HBR
Trap Box + 2 Pan, 12 m
Radar Cross Section
21.980 m², Large (>1 m²)

Expand to show TLE details & history

TLE from 1 day ago
0 O3B FM11
1 40349U 14083B   25180.96490072 -.00000026  00000-0  00000-0 0  9998
2 40349   0.0438 359.5991 0003211 108.6391 251.7936  5.00115669192292
Epoch: 2025-06-29T23:09Z
TLE epoch observation values (Epoch: 2025-06-29T23:09:27.422Z)
Latitude
-0.0011°
Longitude
94.35419°
Altitude
8,065.818 km
Speed
5.254 km/s
True Right ascension
23h 59m 59s
True Declination
0° 00' 04"
Sunlit
Object was in daylight at epoch
Visualization orbit readout
Latitude
-0.03699°
Longitude
-34.25962°
Altitude
8,066.859 km
Speed
5.253 km/s
Apparent Right ascension
14h 13m 01s
Apparent Declination
-19° 06' 10"
Sunlit
Object is in daylight
Visualization observer readout
Local Sidereal Time
18:39:21
Azimuth
240.431° WSW
Elevation
4.475°
Doppler factor
1
Orbital elements
Apogee altitude
8,073.584 km
Perigee altitude
8,064.306 km
Semi-major axis
14,447.082 km
Eccentricity
0.00032
Inclination
0.0438°
RAAN
359.5991°
Arg. of periapsis
108.6391°
True anomaly
Unknown
Mean anomaly
251.7936°
Eccentric anomaly
Unknown
Mean motion
1.24989 °/min
Orbital period
288.02 mins
BSTAR
0
Loading maneuver chart data...
Loading SW <> Apogee altitude chart data...
Loading historical data...
Loading historical data...
Loading historical data...
Loading historical data...
Loading historical data...
Loading historical data...
Loading historical data...
Other satellites on launch #83 in the year 2014 (2014-12-18 UTC)

O3B FM11 Visibility forecast

Observer location: undefined°, undefined°

Span
Click to sort rows by Start time (UTC) header in descending order
Start Az.
Max El. time (UTC)
Max El. Az.
Max El.
End time (UTC)
End Az.
79 mins2025-07-01 07:10:27.979Z232.07° WSW2025-07-01 07:50:27.979Z179.199° S24.333°2025-07-01 08:29:27.979Z127.881° SE
78 mins2025-07-01 13:11:27.979Z231.142° WSW2025-07-01 13:50:27.979Z179.252° S24.385°2025-07-01 14:29:27.979Z127.829° SE
78 mins2025-07-01 19:11:27.979Z231.19° WSW2025-07-01 19:49:27.979Z180.753° SSW24.402°2025-07-01 20:29:27.979Z127.8° SE
78 mins2025-07-02 01:11:27.979Z231.121° WSW2025-07-02 01:49:27.979Z180.697° SSW24.351°2025-07-02 02:29:27.979Z127.852° SE
|